This is the latest recevied weather packets stored in our database for station/object KN6CW-3. If no packets are shown the sender has not sent any weather packets the latest 10 day(s).
| Time | Temp. | Humidity | Pressure | Rain* | Wind** | Luminosity | Snow |
|---|---|---|---|---|---|---|---|
| 1777992252 | 19.44° C | 62% | 1009.5 hPa | 0 mm | - | 779 W/m² | - |
| 1777991952 | 18.89° C | 65% | 1009.6 hPa | 0 mm | - | 770 W/m² | - |
| 1777991651 | 18.89° C | 64% | 1009.6 hPa | 0 mm | - | 758 W/m² | - |
| 1777991351 | 18.33° C | 65% | 1009.6 hPa | 0 mm | - | 744 W/m² | - |
| 1777991051 | 18.33° C | 65% | 1010.1 hPa | 0 mm | - | 733 W/m² | - |
| 1777990751 | 18.33° C | 67% | 1010.1 hPa | 0 mm | - | 719 W/m² | - |
| 1777990450 | 17.78° C | 68% | 1010.2 hPa | 0 mm | - | 708 W/m² | - |
| 1777989849 | 17.22° C | 68% | 1010.2 hPa | 0 mm | - | 684 W/m² | - |
| 1777989249 | 17.22° C | 69% | 1010.3 hPa | 0 mm | - | 659 W/m² | - |
| 1777988949 | 16.67° C | 70% | 1010.4 hPa | 0 mm | - | 645 W/m² | - |
| 1777988648 | 16.67° C | 70% | 1010.4 hPa | 0 mm | - | 631 W/m² | - |
| 1777988348 | 16.67° C | 68% | 1010.4 hPa | 0 mm | - | 617 W/m² | - |
| 1777988048 | 16.67° C | 69% | 1010.5 hPa | 0 mm | - | 612 W/m² | - |
| 1777987748 | 16.67° C | 69% | 1010.5 hPa | 0 mm | - | 594 W/m² | - |
| 1777987447 | 16.67° C | 71% | 1010.4 hPa | 0 mm | - | 582 W/m² | - |
| 1777987147 | 16.11° C | 71% | 1010.3 hPa | 0 mm | - | 580 W/m² | - |
| 1777986847 | 16.11° C | 71% | 1010.4 hPa | 0 mm | - | 469 W/m² | - |
| 1777986835 | 16.11° C | 71% | 1010.4 hPa | 0 mm | - | 230 W/m² | - |
| 1777986546 | 16.11° C | 71% | 1010.4 hPa | 0 mm | - | 230 W/m² | - |
| 1777986247 | 16.11° C | 72% | 1010.3 hPa | 0 mm | - | 346 W/m² | - |
| 1777985946 | 16.11° C | 72% | 1010.3 hPa | 0 mm | - | 650 W/m² | - |
| 1777985645 | 16.11° C | 72% | 1010.2 hPa | 0 mm | - | 533 W/m² | - |
| 1777985345 | 15.56° C | 73% | 1010 hPa | 0 mm | - | 483 W/m² | - |
| 1777985045 | 15.56° C | 72% | 1010 hPa | 0 mm | - | 461 W/m² | - |
| 1777984745 | 15° C | 71% | 1010.1 hPa | 0 mm | - | 469 W/m² | - |
* Rain latest hour (hover to see other rain measurements)
** Current wind speed in m/s (hover to see current wind gust speed)